Regional Weather Roundup
Issued by NWS

Home | Current Version | Previous Version | Graphics & Text | Print | Product List | Glossary On
Versions: 1 2 3 4 5 6 7 8 9 10 11 12 13 14 15 16 17 18 19 20 21 22 23 24 25 26 27 28 29 30 31 32 33 34 35 36 37 38 39 40 41 42 43 44 45 46 47 48 49 50
000
ASUS43 KBIS 161010
RWRND

NORTH DAKOTA REGIONAL WEATHER ROUNDUP
NATIONAL WEATHER SERVICE BISMARCK ND
400 AM CST TUE JAN 16 2018

NOTE: "FAIR" INDICATES FEW OR NO CLOUDS BELOW 12,000 FEET WITH NO
SIGNIFICANT WEATHER AND/OR OBSTRUCTIONS TO VISIBILITY.


NDZ001>003-009>011-017-161100-
NORTHWEST NORTH DAKOTA

CITY           SKY/WX    TMP DP  RH WIND       PRES   REMARKS
WILLISTON      PTCLDY   -15 -21  74 S3        30.65F
MINOT          CLOUDY   -14 -21  71 S7        30.69F WCI -30
MINOT AFB      CLOUDY   -18 -24  73 S8        30.69F WCI -36
$$

NDZ018>021-031>035-040>046-161100-
SOUTHWEST NORTH DAKOTA

CITY           SKY/WX    TMP DP  RH WIND       PRES   REMARKS
BISMARCK       PTCLDY   -17 -23  73 W5        30.79S WCI -30
DICKINSON      CLEAR    -14 -20  74 SW8       30.58F WCI -31
GARRISON         N/A    -19 -25  73 CALM      30.71F
HETTINGER ARPT CLEAR    -15 -21  74 CALM      30.64F
$$

NDZ004>008-012>016-024-026-027-054-161100-
NORTHEAST NORTH DAKOTA

CITY           SKY/WX    TMP DP  RH WIND       PRES   REMARKS
GRAND FORKS    FAIR     -15 -21  74 W6        30.81F WCI -29
GRND FRKS AFB  FAIR     -15 -23  67 NW8       30.80F WCI -33
DEVILS LAKE    FAIR     -18 -24  76 W6        30.75F WCI -33
$$

NDZ022-023-025-028>030-036>039-047>053-161100-
SOUTHEAST NORTH DAKOTA

CITY           SKY/WX    TMP DP  RH WIND       PRES   REMARKS
FARGO          FAIR     -12 -18  74 NW9       30.82S WCI -30
JAMESTOWN      CLOUDY   -15 -20  78 W9        30.75F WCI -34
$$





USA.gov is the U.S. government's official web portal to all federal, state and local government web resources and services.